This demonstration page uses our WeatherBlox Daily Observations layout. Learn more.

Left ArrowRight Arrow

Hourly Observations for December 18, 2019

Temp ( °F °C ) Dew Point ( °F °C ) Humidity (%) Winds ( mph kmh ) Pressure ( in mb ) Visibility ( mi km ) Precip ( " mm )
12:56 am 00:56 Clear 21 -6 18 -8 86 86 WNW 3 6 30.32 1027 10 16 0.00 0.00
1:56 am 01:56 Clear 19 -7 16 -9 86 86 NNE 5 7 30.34 1027 10 16 0.00 0.00
2:56 am 02:56 Clear 19 -7 18 -8 93 93 Calm 30.35 1028 10 16 0.00 0.00
3:56 am 03:56 Clear 19 -7 16 -9 86 86 Calm 30.34 1027 10 16 0.00 0.00
4:56 am 04:56 Clear 19 -7 16 -9 86 86 ESE 3 6 30.34 1027 10 16 0.00 0.00
5:56 am 05:56 Clear 18 -8 16 -9 93 93 E 3 6 30.34 1027 10 16 0.00 0.00
6:56 am 06:56 Clear 18 -8 16 -9 93 93 SE 3 6 30.36 1028 10 16 0.00 0.00
7:56 am 07:56 Mostly Sunny 18 -8 14 -10 86 86 E 6 9 30.36 1028 10 16 0.00 0.00
8:56 am 08:56 Mostly Sunny 19 -7 16 -9 86 86 SE 5 7 30.37 1028 10 16 0.00 0.00
9:56 am 09:56 Mostly Sunny 23 -5 18 -8 80 80 SE 10 17 30.36 1028 10 16 0.00 0.00
10:56 am 10:56 Mostly Sunny 27 -3 19 -7 74 74 SE 12 19 30.34 1027 10 16 0.00 0.00
11:56 am 11:56 Mostly Sunny 30 -1 21 -6 69 69 SE 10 17 30.29 1026 10 16 0.00 0.00
12:56 pm 12:56 undefined N/A N/A N/A SSE 13 20 N/A 10 16 0.00 0.00
1:56 pm 13:56 Mostly Sunny 36 2 23 -5 60 60 SSE 13 20 30.22 1023 10 16 0.00 0.00
2:56 pm 14:56 Sunny N/A N/A N/A S 13 20 N/A 10 16 0.00 0.00
3:56 pm 15:56 Mostly Sunny 36 2 25 -4 65 65 SE 12 19 30.19 1023 10 16 0.00 0.00
4:56 pm 16:56 Mostly Sunny 36 2 27 -3 70 70 SE 9 15 30.19 1022 10 16 0.00 0.00
5:56 pm 17:56 Mostly Clear 34 1 25 -4 70 70 S 7 11 30.19 1023 10 16 0.00 0.00
6:56 pm 18:56 Partly Cloudy 32 0 25 -4 75 75 SSE 7 11 30.20 1023 10 16 0.00 0.00
7:56 pm 19:56 Partly Cloudy 32 0 25 -4 75 75 S 7 11 30.21 1023 10 16 0.00 0.00
8:56 pm 20:56 Partly Cloudy 27 -3 23 -5 86 86 E 3 6 30.20 1023 10 16 0.00 0.00
9:56 pm 21:56 Partly Cloudy 28 -2 23 -5 80 80 ESE 3 6 30.19 1023 10 16 0.00 0.00
10:56 pm 22:56 Clear 27 -3 23 -5 86 86 ESE 3 6 30.18 1022 10 16 0.00 0.00
11:56 pm 23:56 Clear 27 -3 23 -5 86 86 SSE 3 6 30.17 1022 10 16 0.00 0.00

Powered by AerisWeather